Location: ??????
(42.0089°N, 44.3281°E)
Time: 17:30:54
(UTC+00:00)

Okean 1-7 Rocket - Pass Details

Date: 30 May 2022
Orbit: 616 x 648 km, 82.5° (Epoch: 01 July)

Event Time Altitude Azimuth Distance (km) Brightness Sun altitude
Exits shadow 23:44:19 - 162° (SSE) 2,053 5.9 -15.7°
Reaches altitude 10° 23:44:30 10° 161° (SSE) 1,986 5.8 -15.7°
Maximum altitude 23:48:36 40° 92° (E) 916 4.7 -15.2°
Drops below altitude 10° 23:52:43 10° 23° (NNE) 1,990 7.4 -14.7°
Sets 23:55:02 0° 16° (NNE) 2,898 8.2 -14.4°
